Fort Wayne, IN

6:11 PM EDT on September 21, 2019 (GMT -0400)
Fort Wayne International

Weather History for KFWA - August, 2019

Change the Weather History Date:

Sunday, August 25, 2019

  Actual Average Record
Temperature  
Mean Temperature 65 °F 71 °F  
Max Temperature 76 °F 82 °F 95 °F (1948)
Min Temperature 53 °F 60 °F 44 °F (1944)
Degree Days  
Heating Degree Days 0 0  
Month to date heating degree days 0 0  
Since 1 June heating degree days 18 32  
Since 1 July heating degree days 0 3  
Cooling Degree Days 0 6  
Month to date cooling degree days 180 176  
Year to date cooling degree days 821 682  
Since 1 June cooling degree days 753 625  
Growing Degree Days 14 (Base 50)    
Moisture  
Dew Point 55 °F    
Average Humidity 70    
Maximum Humidity 93    
Minimum Humidity 46    
Precipitation  
Precipitation 0.00 in 0.11 in 1.36 in (2018)
Month to date precipitation 2.88 2.96  
Year to date precipitation 26.80 26.16  
Sea Level Pressure  
Sea Level Pressure 30.12 in    
Wind  
Wind Speed 9 mph (East)    
Max Wind Speed 17 mph    
Max Gust Speed 24 mph    
Visibility 10 miles    
Events      
T = Trace of Precipitation, MM = Missing Value Source: NWS Daily Summary

Daily Weather History Graph

Daily Weather History Graph

Search for Another Location

Airport or City:

Astronomy

Aug. 25, 2019 Rise Set
Actual Time 7:00 AM EDT 8:24 PM EDT
Civil Twilight 6:31 AM EDT 8:53 PM EDT
Nautical Twilight 5:57 AM EDT 9:27 PM EDT
Astronomical Twilight 5:20 AM EDT 10:04 PM EDT
Moon 1:33 AM EDT (8/25) 4:46 PM EDT (8/25)
Length of Visible Light 14h 21m
Length of Day
13h 24m
Waning Crescent, 29% of the Moon is Illuminated
Aug 25
Waning Crescent
Aug 30
New
Sep 5
First Quarter
Sep 14
Full
Sep 21
Last Quarter

Hourly Weather History & Observations

Time (EDT) Temp. Dew Point Humidity Pressure Visibility Wind Dir Wind Speed Gust Speed Precip Events Conditions
12:54 AM 57.0 °F 52.0 °F 83% 30.22 in 10.0 mi East 5.8 mph - N/A   Partly Cloudy
1:54 AM 55.9 °F 51.1 °F 84% 30.21 in 10.0 mi ENE 4.6 mph - N/A   Scattered Clouds
2:54 AM 55.9 °F 52.0 °F 87% 30.20 in 10.0 mi East 3.5 mph - N/A   Scattered Clouds
3:54 AM 54.0 °F 52.0 °F 93% 30.18 in 10.0 mi East 5.8 mph - N/A   Scattered Clouds
4:54 AM 55.0 °F 52.0 °F 89% 30.18 in 10.0 mi East 4.6 mph - N/A   Partly Cloudy
5:54 AM 54.0 °F 52.0 °F 93% 30.18 in 10.0 mi ENE 4.6 mph - N/A   Scattered Clouds
6:54 AM 54.0 °F 52.0 °F 93% 30.17 in 10.0 mi ENE 5.8 mph - N/A   Mostly Cloudy
7:54 AM 55.9 °F 53.1 °F 90% 30.18 in 10.0 mi ENE 4.6 mph - N/A   Mostly Cloudy
8:54 AM 60.1 °F 55.0 °F 83% 30.19 in 10.0 mi East 6.9 mph - N/A   Mostly Cloudy
9:54 AM 63.0 °F 55.0 °F 75% 30.17 in 10.0 mi East 5.8 mph - N/A   Mostly Cloudy
10:54 AM 68.0 °F 55.9 °F 65% 30.17 in 10.0 mi East 8.1 mph - N/A   Mostly Cloudy
11:54 AM 72.0 °F 55.9 °F 57% 30.17 in 10.0 mi ENE 9.2 mph - N/A   Mostly Cloudy
12:54 PM 73.0 °F 55.0 °F 53% 30.14 in 10.0 mi East 13.8 mph - N/A   Mostly Cloudy
1:54 PM 75.0 °F 53.1 °F 46% 30.12 in 10.0 mi ENE 15.0 mph - N/A   Mostly Cloudy
2:54 PM 75.0 °F 55.0 °F 50% 30.11 in 10.0 mi East 11.5 mph - N/A   Mostly Cloudy
3:54 PM 75.0 °F 57.9 °F 55% 30.09 in 10.0 mi East 12.7 mph - N/A   Mostly Cloudy
4:54 PM 75.9 °F 60.1 °F 58% 30.06 in 10.0 mi East 12.7 mph 24.2 mph N/A   Mostly Cloudy
5:54 PM 73.9 °F 59.0 °F 59% 30.05 in 10.0 mi East 13.8 mph - N/A   Mostly Cloudy
6:54 PM 73.9 °F 60.1 °F 62% 30.04 in 10.0 mi East 10.4 mph - N/A   Mostly Cloudy
7:54 PM 71.1 °F 59.0 °F 66% 30.03 in 10.0 mi East 9.2 mph - N/A   Mostly Cloudy
8:54 PM 68.0 °F 59.0 °F 73% 30.03 in 10.0 mi East 9.2 mph - N/A   Mostly Cloudy
9:54 PM 66.0 °F 57.9 °F 75% 30.05 in 10.0 mi East 8.1 mph - N/A   Scattered Clouds
10:54 PM 64.0 °F 57.0 °F 78% 30.05 in 10.0 mi East 6.9 mph - N/A   Mostly Cloudy
11:54 PM 64.0 °F 55.9 °F 75% 30.03 in 10.0 mi East 10.4 mph - N/A   Mostly Cloudy